Location: Nebula Knoll Observatory
(43.6666°N, 71.0000°W)
Time: 17:59:38
(UTC-04:00)

Daily predictions for brighter satellites

Satellite Brightness Start Highest point End
(mag) Time Altitude Azimuth Time Altitude Azimuth Time Altitude Azimuth
Envisat 4.4 19:55:16 10° ESE 19:58:57 21° ENE 20:02:39 10° NNE
Meteor 1-11 Rocket 4.3 19:56:09 10° SSW 20:01:41 66° WNW 20:07:12 10° N
Helios 1B rocket 3.5 20:02:26 10° N 20:06:27 50° WNW 20:10:26 10° SSW
Cosmos 2219 4.5 20:02:49 10° NW 20:08:06 42° WSW 20:13:20 10° S
EO 1 Delta rocket 4.1 20:05:24 10° NNE 20:09:57 53° E 20:15:02 10° S
CZ-4B DEB 3.3 20:07:57 10° S 20:11:12 65° W 20:14:29 10° NNW
Iridium 4 Rocket 4.2 20:07:12 10° NNE 20:11:51 32° ENE 20:16:07 10° SE
DELTA 2 R/B (1) 3.8 20:09:01 10° W 20:14:28 57° S 20:19:39 11° ESE
Okean 2 3.5 20:16:07 10° N 20:20:19 81° W 20:24:27 10° S
Cosmos 1975 3.5 20:18:38 10° SSE 20:22:22 34° E 20:26:07 10° NNE
Meteor 2-4 Rocket 4.5 20:16:42 10° NNW 20:22:26 60° W 20:28:15 10° S
Cosmos 2123 Rocket 4.0 20:18:39 10° N 20:24:52 81° E 20:31:03 10° S
Cosmos 1697 Rocket 3.7 20:20:46 10° SSE 20:25:09 24° ESE 20:29:34 10° NE
NOSS 2-1 (D) 4.0 20:21:19 10° SW 20:25:10 62° NW 20:29:41 10° NNE
NOSS 2-1 (C) 4.0 20:22:19 10° SW 20:26:12 62° NW 20:30:43 10° NNE
Cosmos 2278 3.7 20:21:29 10° SSW 20:27:06 66° ESE 20:32:46 10° NNE
Lacrosse 5 rocket 1.1 20:27:23 10° NW 20:31:07 65° NE 20:33:40 18° ESE
H-2A R/B 3.2 20:29:22 15° ESE 20:31:42 24° ENE 20:35:02 10° NNE
ERS-1 Rocket 3.2 20:27:49 10° SE 20:32:40 51° ENE 20:37:31 10° N
ALOS 2.9 20:28:38 10° S 20:33:14 57° W 20:37:51 10° NNW
Cosmos 1626 Rocket 3.6 20:29:47 10° N 20:34:09 57° E 20:38:27 10° SSE
Cosmos 1898 Rocket 4.1 20:30:06 10° N 20:35:08 40° ENE 20:38:49 17° SE
Meteor 1-12 Rocket 4.3 20:31:15 10° S 20:36:52 62° E 20:42:38 10° NNE
H-2A R/B 3.6 20:35:44 10° S 20:39:31 52° W 20:43:22 10° NNW
Cosmos 1455 Rocket 3.3 20:35:21 10° SSW 20:39:40 71° W 20:44:01 10° N
Cosmos 2369 3.6 20:34:44 10° SSW 20:40:23 76° ESE 20:46:06 10° NNE
Cosmos 1461 3.0 20:37:28 10° NW 20:41:33 70° WSW 20:44:43 15° SSE
Cosmos 1602 Rocket 3.5 20:38:04 10° N 20:42:33 71° E 20:46:53 10° SSE
Cosmos 1980 Rocket 3.3 20:45:16 18° SE 20:47:17 22° E 20:51:32 10° NE
ARGOS 4.5 20:49:20 18° E 20:51:38 23° ENE 20:55:45 10° NNE
Cosmos 1153 Rocket 4.4 20:48:02 10° S 20:54:12 74° E 21:00:20 10° NNE
Cosmos 1939 Rocket 2.9 20:51:41 19° SSE 20:54:31 65° ENE 20:58:40 10° N
Cosmos 468 Rocket 4.2 20:51:17 10° S 20:56:05 43° ESE 21:00:56 10° NNE
Lacrosse 5 2.4 20:52:29 10° NW 20:57:25 48° NE 21:00:15 23° E
USA 215 4.1 20:57:32 15° E 21:02:37 42° NNE 21:08:41 10° NW
Cosmos 2084 3.4 21:00:02 10° NNW 21:04:03 64° NE 21:05:45 33° ESE
Cosmos 1814 Rocket 4.3 20:59:11 10° S 21:04:13 44° ESE 21:09:15 10° NNE
SPOT 5 3.2 21:02:07 26° SE 21:04:40 48° ENE 21:09:20 10° N
Cosmos 220 Rocket 4.1 21:03:00 10° NNW 21:07:13 70° WSW 21:09:49 22° S
Cosmos 1802 Rocket 4.3 21:02:58 16° SSE 21:07:48 48° E 21:13:56 10° NNE
MetOp-B 4.4 21:07:58 28° SE 21:10:31 49° ENE 21:15:41 10° N
Cosmos 2227 Rocket 3.1 21:07:47 10° NW 21:13:10 45° WSW 21:18:21 11° S
Cosmos 2263 Rocket 4.2 21:11:29 10° NNE 21:14:15 14° NE 21:16:34 11° ENE
Tiangong 1 0.8 21:13:15 10° W 21:16:20 76° S 21:16:25 75° SSE
OTV 4 2.7 21:15:19 10° WSW 21:16:45 16° SSW 21:16:45 16° SSW
Cosmos 1606 Rocket 4.0 21:17:36 38° ESE 21:18:05 40° E 21:22:14 10° NNE
Cosmos 2322 Rocket 4.3 21:21:36 11° ENE 21:21:36 11° ENE 21:21:56 10° ENE
Cosmos 858 Rocket 4.4 21:15:12 10° NNW 21:20:31 87° ENE 21:23:07 31° SSE
Cosmos 1500 3.3 21:18:30 16° SSW 21:21:25 73° W 21:25:12 10° N
RESURS DK-1 2.5 21:17:23 10° NNW 21:21:29 59° ENE 21:22:21 47° ESE
Cosmos 1656 3.6 21:16:05 10° SSW 21:21:43 89° WNW 21:27:19 10° NNE
BREEZE-M TANK 3.0 21:13:38 10° WNW 21:23:40 68° SSW 21:24:54 42° SE
Cosmos 2298 Rocket 4.2 21:20:09 10° NNW 21:25:27 71° WSW 21:28:25 27° S
Cosmos 2016 Rocket 4.0 21:23:05 27° SSE 21:26:15 55° E 21:32:16 10° NNE
SL-19 R/B 4.5 21:22:44 10° NNE 21:27:58 42° E 21:28:55 39° SE
Cosmos 2297 Rocket 3.0 21:23:27 10° NW 21:28:50 47° WSW 21:32:48 18° S
SL-08 RB Rocket 4.5 21:29:16 34° E 21:29:44 35° ENE 21:33:59 10° N
PSLV R/B 4.0 21:31:35 40° NNE 21:31:35 40° NNE 21:33:48 10° N
Cosmos 1340 2.5 21:31:06 10° N 21:34:54 69° E 21:34:56 69° E
Envisat 3.6 21:34:13 20° S 21:37:34 54° W 21:42:34 10° NNW
CZ-4 SHROUD 4.3 21:38:48 37° NNE 21:38:48 37° NNE 21:40:53 10° N
Cosmos 2173 Rocket 4.0 21:32:57 11° S 21:39:04 88° W 21:45:27 10° N
H-2A R/B 3.0 21:39:13 29° ENE 21:39:29 29° ENE 21:43:42 10° N
Milstar 3 Cent rocket 4.4 21:23:50 10° WSW 21:41:18 39° SSW 21:45:56 29° SSE
Cosmos 1937 Rocket 3.5 21:36:32 10° NNW 21:41:49 77° WSW 21:43:40 41° S
Cosmos 1726 Rocket 3.5 21:42:20 62° E 21:42:20 62° E 21:46:41 10° NNE
Terra 3.1 21:44:43 26° ENE 21:44:43 26° ENE 21:48:28 10° N
ASTEX 1 3.3 21:39:54 10° N 21:44:57 81° E 21:46:26 46° S
Cosmos 2098 Rocket 4.1 21:45:59 37° SSE 21:48:47 63° E 21:54:43 10° NNE
Cosmos 2100 Rocket 4.3 21:43:12 10° SSW 21:49:28 68° W 21:55:42 10° N
YAOGAN 6 2.7 21:49:35 71° W 21:49:35 71° W 21:53:13 10° NNW
OAO 2 Rocket 4.5 21:45:07 10° WSW 21:48:33 29° SSW 21:48:33 29° SSW
Cosmos 2061 Rocket 4.2 21:44:14 11° SSW 21:50:16 74° W 21:56:33 10° N
Cosmos 1864 Rocket 4.5 21:52:34 49° SE 21:53:49 59° E 21:59:50 10° NNE
Tsikada Rocket 4.1 21:47:39 10° N 21:54:03 63° E 21:55:35 49° SE
Cosmos 1743 3.3 21:53:16 43° SW 21:54:10 55° W 21:58:02 10° N
Cosmos 1825 Rocket 4.0 21:50:01 10° NNW 21:54:23 59° W 21:55:21 46° SW
Cosmos 967 Rocket 4.4 21:48:46 10° NNW 21:55:10 80° ENE 21:56:50 52° SE
MetOp-A 4.4 21:55:02 38° SSW 21:57:00 64° WSW 22:02:20 10° NNW
Cosmos 990 Rocket 4.0 21:52:25 10° NNW 21:57:41 76° WSW 21:58:46 56° S
SPOT 1/Viking Rocket 3.4 21:57:13 60° SSE 21:58:12 87° ENE 22:03:28 10° NNW
DELTA 2 R/B (1) 4.3 21:55:24 10° W 22:00:24 37° SSW 22:00:24 37° SSW
USA 245 4.5 22:00:23 45° S 22:02:27 82° WSW 22:08:52 10° NNW
Cosmos 1953 Rocket 3.8 21:58:55 10° NNW 22:03:19 65° W 22:03:44 61° SW
CZ-4B R/B 3.4 21:58:50 10° NNE 22:03:04 61° ENE 22:03:04 61° ENE
H-2A R/B 3.5 22:06:31 26° SW 22:07:36 29° W 22:11:15 10° NW
Cosmos 1697 Rocket 3.4 22:03:14 10° SW 22:08:44 52° WNW 22:14:16 10° NNE
Lacrosse 5 rocket 3.6 22:07:52 10° W 22:09:24 14° WSW 22:09:24 14° WSW
SL-16 R/B 3.4 22:15:31 28° ENE 22:15:31 28° ENE 22:18:31 10° NE
Cosmos 1842 4.0 22:10:28 10° NNW 22:13:32 50° NW 22:13:32 50° NW
NOAA 11 4.3 22:15:11 59° SSW 22:16:06 72° WSW 22:21:36 10° NNW
Cosmos 1816 Rocket 4.4 22:14:13 10° N 22:20:38 79° E 22:21:26 68° SE
Cosmos 1758 Rocket 4.3 22:18:13 10° NNW 22:22:20 46° W 22:22:20 46° W
Cosmos 1125 Rocket 3.5 22:18:19 10° NNW 22:23:14 73° NNE 22:23:14 73° NNE
Cosmos 1725 Rocket 4.0 22:22:45 53° SSW 22:24:21 80° W 22:30:38 10° N
Cosmos 1763 Rocket 3.8 22:24:18 49° WSW 22:25:26 62° WNW 22:30:29 10° NNE
Cosmos 2228 4.0 22:29:02 42° N 22:29:02 42° N 22:31:57 10° N
Meteor 2-5 Rocket 4.2 22:23:43 10° N 22:29:09 51° ENE 22:29:09 51° ENE
Cosmos 1980 Rocket 2.7 22:26:51 19° SW 22:30:49 57° WNW 22:36:27 10° NNE
Meteor 1-15 Rocket 4.3 22:30:17 65° SW 22:31:08 79° WNW 22:37:03 10° N
ARGOS 3.6 22:30:52 50° SW 22:31:29 53° W 22:36:46 10° NNW
Cosmos 2360 Rocket 4.4 22:35:19 12° NE 22:35:19 12° NE 22:35:54 10° NE
Lacrosse 5 3.1 22:35:42 10° WNW 22:39:26 33° WSW 22:39:26 33° WSW
BREEZE-M DEB (TANK) 4.3 22:10:22 10° WNW 22:41:27 88° NNE 22:43:29 56° ESE
Cosmos 2058 Rocket 4.3 22:44:37 38° WNW 22:44:37 38° WNW 22:48:49 10° N
USA 215 3.1 22:44:53 75° S 22:45:19 79° SW 22:51:54 10° NW
Cosmos 841 Rocket 4.3 22:45:04 41° W 22:46:11 48° WNW 22:51:15 10° N
Meteor 2-17 Rocket 4.3 22:48:05 81° W 22:48:09 81° W 22:54:14 10° N
BREEZE-M DEB (TANK) 4.4 22:40:01 10° SW 22:49:08 56° SW 22:49:08 56° SW
Cosmos 2233 Rocket 3.9 22:51:56 79° W 22:52:04 79° W 22:58:20 10° N
Meteor 1-24 Rocket 4.4 22:51:11 10° N 22:56:11 48° NE 22:56:11 48° NE
Cosmos 2263 Rocket 2.6 22:53:40 10° NNW 22:58:15 58° N 22:58:15 58° N
Cosmos 2322 Rocket 2.7 23:03:22 55° N 23:03:22 55° N 23:07:48 10° NNE
H-2A R/B 3.4 23:19:51 32° WNW 23:19:51 32° WNW 23:23:20 10° NNW
BREEZE-M DEB (TANK) 3.9 23:06:27 10° WNW 23:18:46 62° W 23:18:46 62° W
Terra 3.5 23:23:37 30° WNW 23:23:37 30° WNW 23:26:33 10° NNW
Cosmos 1464 Rocket 4.3 23:34:51 64° N 23:34:51 64° N 23:40:12 10° N
Cosmos 2278 Rocket 4.1 23:38:01 10° N 23:42:08 21° NE 23:42:08 21° NE
